星链-33804 (STARLINK-33804)

导读 | 豆包AI

STARLINK-33804是美国SpaceX公司星链星座中的一颗低轨互联网卫星,于2025年4月7日发射入轨。星链星座旨在为全球提供低时延、高速的宽带互联网服务,尤其覆盖偏远地区。该卫星运行于近地轨道,采用相控阵天线、OFDM调制等技术,配备氩气推进器完成轨道机动与离轨处置,是SpaceX大规模低轨卫星组网建设的组成部分,支撑全球卫星互联网络服务能力扩展。

基本信息
目录编号:
63511
目录名称:
STARLINK-33804
国际标识:
2025-071U
轨道中心:
EARTH
卫星名称:
星链-33804
卫星全名:
星链-33804 (STARLINK-33804)
卫星状态:
在轨 (已飞行387 天)
发射日期:
2025-04-07 UTC
国别 :
美国 (US)
星等 :
--
轨道信息
数据来源 国际轨道数据
星历时间: 2026-04-29T22:46:55+0800
5小时前
查看轨道信息
半长轴: 6853.326km
偏心率: 0.0001097
轨道倾角: 53.157°
近地点辐角 89.148°
升交点赤经 263.567°
平近点角 270.964°
近地点: 474.437km
远地点: 475.941km
周期: 94.105分钟
每日圈数: 15.302088
详细信息
固有亮度:
5
最大亮度:
2.5
卫星平台:
Starlink V1.0
覆盖范围:
全球
运营商:
太空探索技术公司
运营商所在国:
美国
制造商(研发单位):
太空探索技术公司
制造商所在国:
美国
使用方式:
暂无
卫星简介
Starlink 计划是 SpaceX 推出的全球卫星互联网项目,通过发射低轨道卫星,为全球尤其是偏远地区提供高速、低延迟的互联网服务。自 2019 年起,Starlink 已部署数千颗卫星,旨在缩小全球数字鸿沟,推动互联网普及。该项目还为军事、航空等行业提供通信支持,带来广泛经济效益。
2D轨道图
3D轨道图
轨道高度分析图
轨道倾角分析图
轨道综合分析图
查看轨道综合分析图